Location: Quedlinburg
(51.7921°N, 11.1414°E)
Time: 08:54:00
(UTC+01:00)

ISS - Visible Passes

Search period start: 25 January 2021 00:00
Search period end: 04 February 2021 00:00
Orbit: 418 x 421 km, 51.6° (Epoch: 25 January)

Date Brightness Start Highest point End Pass type
(mag) Time Alt. Az. Time Alt. Az. Time Alt. Az.
25 Jan -3.3 17:58:20 10° WSW 18:01:39 52° SSE 18:04:02 17° E visible
25 Jan -2.0 19:34:59 10° W 19:37:00 33° W 19:37:00 33° W visible
26 Jan -3.8 18:47:37 10° W 18:51:01 87° S 18:51:35 59° E visible
26 Jan -0.2 20:24:27 10° W 20:24:33 11° W 20:24:33 11° W visible
27 Jan -3.7 18:00:15 10° WSW 18:03:38 78° S 18:06:09 17° E visible
27 Jan -2.1 19:37:04 10° W 19:39:07 34° W 19:39:07 34° W visible
28 Jan -3.8 18:49:40 10° W 18:53:04 88° S 18:53:41 57° E visible
28 Jan -0.2 20:26:32 10° W 20:26:40 11° W 20:26:40 11° W visible
29 Jan -3.8 18:02:16 10° W 18:05:40 90° NNW 18:08:17 16° E visible
29 Jan -2.1 19:39:06 10° W 19:41:15 34° W 19:41:15 34° W visible
30 Jan -3.6 18:51:41 10° W 18:55:03 70° SSW 18:55:52 47° SE visible
30 Jan -0.2 20:28:45 10° W 20:28:51 11° W 20:28:51 11° W visible
31 Jan -3.7 18:04:16 10° W 18:07:39 81° S 18:10:32 14° ESE visible
31 Jan -1.9 19:41:10 10° W 19:43:31 29° SW 19:43:31 29° SW visible
01 Feb -2.8 18:53:40 10° W 18:56:55 43° SSW 18:58:16 27° SSE visible
02 Feb -3.2 18:06:13 10° W 18:09:32 56° SSW 18:12:52 10° ESE visible
02 Feb -1.3 19:43:36 10° W 19:45:51 17° SW 19:46:06 17° SSW visible
03 Feb -1.6 18:55:49 10° W 18:58:35 23° SSW 19:01:05 11° SSE visible
